[[{"header":{"parameterUnit":"m.s-1","parameterCategory":1,"la1":30.2992,"la2":30.254,"lo1":-89.0895,"lo2":-89.0443,"dy":0.0025,"dx":0.0025,"nx":19,"ny":19,"refTime":"2026-04-16T21:00:00:Z","depth":0,"parameterNumber":2,"parameterNumberName":"U-component_of_WINDS"},"data":[0,0,0,-0.7368,-0.7367,-0.7354,-0.7353,-0.7342,-0.7342,0,0,0,0,0,0,0,0,0,0,0,-0.7374,-0.7374,-0.7368,-0.7367,-0.7354,-0.7353,-0.7342,-0.7342,0,0,0,0,0,0,0,0,0,0,0,-0.7374,-0.7374,-0.7374,-0.7367,-0.7354,-0.7353,-0.7342,-0.7351,0,0,0,0,0,0,0,0,0,0,-0.7363,-0.7371,-0.7374,-0.7374,-0.7367,-0.7354,-0.7353,-0.7351,-0.735,-0.7351,0,-0.7351,0,-0.7346,-0.7342,-0.7342,0,0,0,-0.7366,-0.7372,-0.7366,-0.7374,-0.7367,-0.7354,-0.7359,-0.735,-0.7349,-0.735,-0.7351,-0.735,-0.7346,-0.7341,-0.7341,-0.7349,-0.7349,0,0,-0.7366,-0.7373,-0.7367,-0.7365,-0.7367,-0.736,-0.7359,-0.735,-0.7352,-0.7351,-0.735,-0.7346,-0.7341,-0.7341,-0.7349,-0.7349,0,0,0,-0.737,-0.7374,-0.7368,-0.7366,-0.7363,-0.7359,-0.7358,-0.7352,-0.735,-0.735,-0.7346,-0.7341,-0.7341,-0.7349,-0.7349,-0.7361,0,0,0,-0.737,-0.7376,-0.7368,-0.7372,-0.7363,-0.7357,-0.7361,-0.735,-0.7349,-0.7346,-0.7341,-0.7341,-0.7349,-0.7349,-0.736,-0.7365,0,0,0,-0.7374,-0.7376,-0.7375,-0.7373,-0.7367,-0.7357,-0.7354,-0.735,-0.7347,-0.7342,-0.7341,-0.7349,-0.7349,-0.736,-0.7364,-0.7369,0,0,0,-0.7381,-0.7386,-0.7375,-0.738,-0.7367,-0.7365,-0.7354,-0.7352,-0.7349,-0.7341,-0.7349,-0.7349,-0.736,-0.7364,-0.7369,-0.7374,-0.7377,0,0,-0.7391,-0.7387,-0.7389,-0.738,-0.738,-0.7366,-0.7369,-0.736,-0.7354,-0.7352,-0.7352,-0.7361,-0.7364,-0.7369,-0.7393,-0.7395,0,0,0,-0.7395,-0.7396,-0.7395,-0.7392,-0.7386,-0.7381,-0.7371,-0.7368,-0.7366,-0.7354,-0.7364,-0.7366,-0.7368,-0.7371,-0.7373,-0.7375,-0.7351,-0.7351,-0.7351,-0.7417,-0.741,-0.7413,-0.7403,-0.7401,-0.7392,-0.739,-0.7384,-0.7376,-0.7379,-0.7378,-0.7393,-0.7396,-0.7398,-0.74,-0.7381,-0.7381,-0.7381,-0.7381,-0.7431,-0.7432,-0.7423,-0.7422,-0.7415,-0.7415,-0.7407,-0.7402,-0.7401,-0.7393,-0.7395,-0.7386,-0.7401,-0.7402,-0.7382,-0.7382,-0.7382,-0.7382,-0.7382,-0.7444,-0.7443,-0.744,-0.7437,-0.7435,-0.7427,-0.7427,-0.742,-0.7413,-0.7415,-0.7414,-0.7413,-0.7412,-0.7415,-0.7415,-0.7415,-0.7415,-0.7415,-0.7415,-0.7459,-0.7455,-0.7456,-0.7451,-0.7449,-0.7446,-0.7438,-0.7436,-0.7433,-0.7428,-0.7428,-0.742,-0.7404,-0.7399,-0.7416,-0.7416,-0.7416,-0.7416,-0.7416,-0.7474,-0.747,-0.7471,-0.7469,-0.7464,-0.7463,-0.7455,-0.7453,-0.7451,-0.7451,-0.7444,-0.7433,-0.7429,-0.7427,-0.7423,-0.7446,-0.7446,-0.7446,-0.7446,-0.7485,-0.7483,-0.7483,-0.7481,-0.7478,-0.7471,-0.7474,-0.7469,-0.7463,-0.7461,-0.7458,-0.7453,-0.7451,-0.7448,-0.7446,-0.7442,-0.7468,-0.7468,-0.7468,-0.7494,-0.7492,-0.7494,-0.7488,-0.7484,-0.7481,-0.7483,-0.7482,-0.7474,-0.7469,-0.746,-0.7459,-0.7451,-0.7449,-0.7441,-0.7438,-0.7432,0,0]},{"header":{"parameterUnit":"m.s-1","parameterCategory":1,"la1":30.2992,"la2":30.254,"lo1":-89.0895,"lo2":-89.0443,"dy":0.0025,"dx":0.0025,"nx":19,"ny":19,"refTime":"2026-04-16T21:00:00:Z","depth":0,"parameterNumber":3,"parameterNumberName":"V-component_of_WINDS"},"data":[0,0,0,4.575,4.575,4.573,4.573,4.5689,4.5688,0,0,0,0,0,0,0,0,0,0,0,4.575,4.575,4.575,4.575,4.573,4.573,4.5689,4.5688,0,0,0,0,0,0,0,0,0,0,0,4.575,4.575,4.5749,4.575,4.573,4.573,4.5689,4.5709,0,0,0,0,0,0,0,0,0,0,4.573,4.5725,4.575,4.5749,4.5749,4.573,4.573,4.571,4.5708,4.5692,0,4.568,0,4.5684,4.5685,4.5685,0,0,0,4.5753,4.5727,4.5728,4.5749,4.5749,4.573,4.574,4.5709,4.5706,4.5689,4.568,4.5678,4.5683,4.5685,4.5684,4.5591,4.559,0,0,4.5754,4.5743,4.573,4.5726,4.5732,4.574,4.5739,4.5707,4.5695,4.568,4.5678,4.5682,4.5684,4.5684,4.5592,4.5591,0,0,0,4.5755,4.5743,4.5745,4.5727,4.5725,4.574,4.5738,4.5696,4.5698,4.5677,4.5682,4.5684,4.5683,4.5592,4.5591,4.555,0,0,0,4.5756,4.5744,4.5745,4.5737,4.5725,4.5711,4.5728,4.57,4.5697,4.5682,4.5684,4.5683,4.5593,4.5592,4.5553,4.5532,0,0,0,4.5753,4.5743,4.5739,4.5737,4.5728,4.5712,4.5712,4.57,4.57,4.5685,4.5683,4.5594,4.5592,4.5555,4.5536,4.5503,0,0,0,4.5746,4.5702,4.5738,4.5689,4.5728,4.5688,4.5712,4.5682,4.5665,4.5684,4.5593,4.5591,4.5556,4.5538,4.5505,4.5473,4.5458,0,0,4.5683,4.5694,4.5666,4.5698,4.5648,4.5692,4.5635,4.5629,4.5637,4.5605,4.5603,4.5552,4.5536,4.5503,4.5385,4.5373,0,0,0,4.5642,4.5622,4.5611,4.5595,4.5591,4.5585,4.5589,4.5587,4.5561,4.5619,4.5532,4.5523,4.5504,4.5489,4.5479,4.5463,4.5584,4.5585,4.5585,4.5534,4.5549,4.5503,4.5515,4.5499,4.5504,4.5491,4.5488,4.5506,4.5485,4.5475,4.5402,4.5384,4.5377,4.5359,4.546,4.546,4.546,4.546,4.5442,4.5415,4.5441,4.5407,4.5421,4.5391,4.5392,4.5406,4.5378,4.5411,4.5395,4.5428,4.5364,4.5349,4.5457,4.5458,4.5458,4.5458,4.5458,4.5372,4.5361,4.5361,4.5339,4.5319,4.5331,4.5304,4.5317,4.533,4.5314,4.5304,4.5305,4.5306,4.5309,4.5309,4.5308,4.5308,4.5308,4.5308,4.5299,4.53,4.5276,4.5268,4.5259,4.5248,4.5252,4.5242,4.5234,4.5246,4.5246,4.5264,4.5356,4.5378,4.5304,4.5304,4.5305,4.5305,4.5306,4.5198,4.5223,4.5187,4.5178,4.5168,4.5146,4.5165,4.5143,4.5137,4.5122,4.5144,4.521,4.5221,4.5228,4.5246,4.5143,4.5143,4.5143,4.5143,4.5138,4.5145,4.5111,4.5095,4.5081,4.5094,4.5048,4.505,4.5054,4.505,4.5067,4.5093,4.51,4.5106,4.5117,4.5133,4.5004,4.5003,4.5003,4.5075,4.5082,4.5043,4.5051,4.5044,4.5036,4.4993,4.4971,4.4981,4.4998,4.5047,4.5053,4.5094,4.5107,4.5124,4.514,4.5171,0,0]}]]